La Hulpe, Belgium
Current Conditions -  °F | °C
As of 5:50 AM on Sunday 23 Nov 2014 (Local Time) from EBBR Reporting Station
Clear Clear  
Wind Chill: 50°   Ceiling: Unl
Heat Index: 50°   Visibility: 6mi
Dew Point: 46°   Wind: 7mph
Humidity: 87%   Direction: 160°SSE
Pressure: 30"   Gusts: NA
Location:  50.73°N, 4.49°E
Report Text: EBBR 230450Z 16006KT CAVOK 10/08 Q1016 NOSIG
Loading
Personal Weather Stations






























Interactive Weather Map New forecast layout! Learn more

10-Day Weather Forecast

Advertisements
Track Severe Weather on mobile